Simultaneous Nadir Overpasses (SNOs) Predictions

Prediction of SNOs between AQUA and METOP-B Satellite Orbit:

Table of predicted SNOs for the next 14.0 days since TLE Epoch: 3/7/2015
Index Date (AQUA) Time (AQUA) Lat,Lon (AQUA) SZA (AQUA ) Date (METOP-B) Time (METOP-B) Lat,Lon (METOP-B) SZA (METOP-B ) Distance(km) Time Diff (sec)
1 03/09/2015 09:45:23 73.39, 28.91 77.98 03/09/2015 09:44:13 73.37, 27.58 78.03 42.52 70
2 03/09/2015 10:34:55 -73.73,-164.18 101.67 03/09/2015 10:34:47 -73.75,-164.20 101.64 2.61 8
3 03/09/2015 11:24:24 73.80, 3.30 78.40 03/09/2015 11:25:26 73.80, 3.24 78.39 2.12 62
4 03/12/2015 05:19:44 73.68, 94.73 77.19 03/12/2015 05:18:31 73.71, 94.76 77.23 3.15 73
5 03/12/2015 06:09:11 -73.76, -97.79 102.75 03/12/2015 06:09:12 -73.75, -97.81 102.75 1.16 1
6 03/12/2015 06:58:40 73.83, 69.68 77.32 03/12/2015 06:59:50 73.84, 69.73 77.32 1.84 70
7 03/15/2015 00:53:59 73.71, 161.13 76.10 03/15/2015 00:52:56 73.69, 161.12 76.09 1.83 63
8 03/15/2015 01:43:26 -73.78, -31.39 103.84 03/15/2015 01:43:36 -73.79, -31.32 103.84 2.27 10
9 03/15/2015 02:32:59 74.07, 135.60 76.46 03/15/2015 02:34:09 74.12, 136.82 76.46 37.56 70
10 03/17/2015 20:28:13 73.73,-132.47 75.00 03/17/2015 20:27:20 73.71,-132.42 75.00 2.16 53
11 03/17/2015 21:17:40 -73.80, 35.02 104.94 03/17/2015 21:18:01 -73.76, 35.03 104.98 3.70 21
12 03/17/2015 22:07:20 74.50,-158.97 75.81 03/17/2015 22:08:25 74.48,-155.84 75.67 93.10 65
13 03/20/2015 16:02:25 73.74, -66.05 73.90 03/20/2015 16:01:43 73.73, -65.99 73.89 2.71 42
14 03/20/2015 16:51:52 -73.81, 101.44 106.05 03/20/2015 16:52:24 -73.78, 101.47 106.08 3.19 32




NCC Satellite Simultaneous Nadir Overpasses (SNOs) Prediction Service
